When you browse on this site, cookies collect data to enhance your experience and personalize the content and advertising you see.
Visit our Privacy Policy to learn more. By continuing to use the site, you agree to this use of cookies and data.
  • In Spain
  • List of Countries
  • For 7 days
  • Water Temperature
  • Satellite Maps
  • Weather Map
  • Weather Widgets
  • user-avatar
    Login

    Hourly Weather Albany

    Today, 20 April, Saturday

    Time Temperature Precipitation Wind Pressure Humidity
    00:00 +6°C° 0.6 mm 7 mps 759 mmHg 76%
    01:00 +6°C° 0.6 mm 7 mps 760 mmHg 76%
    02:00 +6°C° 0 mm 7 mps 760 mmHg 76%
    03:00 +6°C° 0.3 mm 7 mps 760 mmHg 76%
    04:00 +6°C° 0.3 mm 7 mps 761 mmHg 76%
    05:00 +8°C° 0.3 mm 6 mps 761 mmHg 76%
    06:00 +8°C° 0.1 mm 6 mps 762 mmHg 75%
    07:00 +9°C° 0.1 mm 5 mps 762 mmHg 73%
    08:00 +10°C° 0 mm 6 mps 763 mmHg 71%
    09:00 +10°C° 0.1 mm 6 mps 763 mmHg 68%
    10:00 +11°C° 0.1 mm 6 mps 763 mmHg 66%
    11:00 +13°C° 0.1 mm 6 mps 763 mmHg 64%
    12:00 +13°C° 0.1 mm 6 mps 763 mmHg 63%
    13:00 +14°C° 0.1 mm 6 mps 763 mmHg 62%
    14:00 +14°C° 0 mm 6 mps 764 mmHg 60%
    15:00 +14°C° 0 mm 6 mps 764 mmHg 63%
    16:00 +13°C° 0 mm 5 mps 764 mmHg 65%
    17:00 +13°C° 0 mm 4 mps 765 mmHg 67%
    18:00 +13°C° 0 mm 4 mps 765 mmHg 69%
    19:00 +12°C° 0 mm 3 mps 765 mmHg 72%
    20:00 +12°C° 0 mm 3 mps 766 mmHg 74%
    21:00 +11°C° 0 mm 3 mps 766 mmHg 76%
    22:00 +11°C° 0 mm 3 mps 766 mmHg 78%
    23:00 +10°C° 0 mm 3 mps 766 mmHg 80%

    Tomorrow, 21 April, Sunday

    Time Temperature Precipitation Wind Pressure Humidity
    00:00 +10°C° 0 mm 3 mps 766 mmHg 82%
    01:00 +10°C° 0 mm 3 mps 766 mmHg 85%
    02:00 +8°C° 0 mm 4 mps 766 mmHg 87%
    03:00 +8°C° 0 mm 4 mps 766 mmHg 87%
    04:00 +8°C° 0 mm 4 mps 766 mmHg 87%
    05:00 +8°C° 0 mm 4 mps 766 mmHg 87%
    06:00 +10°C° 0 mm 4 mps 766 mmHg 84%
    07:00 +10°C° 0 mm 4 mps 766 mmHg 81%
    08:00 +11°C° 0 mm 4 mps 767 mmHg 78%
    09:00 +13°C° 0 mm 3 mps 767 mmHg 70%
    10:00 +16°C° 0 mm 3 mps 766 mmHg 62%
    11:00 +18°C° 0 mm 3 mps 766 mmHg 54%
    12:00 +19°C° 0 mm 3 mps 766 mmHg 50%
    13:00 +20°C° 0 mm 2 mps 766 mmHg 45%
    14:00 +21°C° 0 mm 2 mps 765 mmHg 41%
    15:00 +20°C° 0 mm 2 mps 765 mmHg 46%
    16:00 +19°C° 0 mm 2 mps 765 mmHg 51%
    17:00 +18°C° 0 mm 2 mps 765 mmHg 56%
    18:00 +18°C° 0 mm 1 mps 765 mmHg 63%
    19:00 +15°C° 0 mm 1 mps 765 mmHg 70%
    20:00 +14°C° 0 mm 1 mps 765 mmHg 77%
    21:00 +14°C° 0 mm 1 mps 765 mmHg 76%
    22:00 +14°C° 0 mm 2 mps 765 mmHg 74%
    23:00 +13°C° 0 mm 2 mps 765 mmHg 73%

    Day after tomorrow, 22 April, Monday

    Time Temperature Precipitation Wind Pressure Humidity
    00:00 +13°C° 0 mm 2 mps 765 mmHg 67%
    01:00 +12°C° 0 mm 3 mps 765 mmHg 62%
    02:00 +12°C° 0 mm 3 mps 764 mmHg 56%
    03:00 +11°C° 0 mm 3 mps 764 mmHg 53%
    04:00 +11°C° 0 mm 3 mps 764 mmHg 51%
    05:00 +11°C° 0 mm 3 mps 764 mmHg 48%
    06:00 +12°C° 0 mm 3 mps 764 mmHg 48%
    07:00 +13°C° 0 mm 4 mps 764 mmHg 47%
    08:00 +14°C° 0 mm 4 mps 764 mmHg 47%
    09:00 +17°C° 0 mm 4 mps 764 mmHg 44%
    10:00 +20°C° 0 mm 4 mps 764 mmHg 41%
    11:00 +22°C° 0 mm 4 mps 764 mmHg 38%
    12:00 +23°C° 0 mm 4 mps 763 mmHg 37%
    13:00 +25°C° 0 mm 4 mps 763 mmHg 36%
    14:00 +25°C° 0 mm 3 mps 762 mmHg 35%
    15:00 +23°C° 0 mm 4 mps 763 mmHg 43%
    16:00 +21°C° 0 mm 4 mps 763 mmHg 51%
    17:00 +20°C° 0 mm 5 mps 763 mmHg 59%
    18:00 +19°C° 0 mm 4 mps 763 mmHg 68%
    19:00 +17°C° 0 mm 3 mps 764 mmHg 77%
    20:00 +16°C° 0 mm 2 mps 764 mmHg 86%
    21:00 +16°C° 0 mm 2 mps 765 mmHg 87%
    22:00 +16°C° 0 mm 2 mps 765 mmHg 87%
    23:00 +15°C° 0 mm 1 mps 765 mmHg 88%

    23 April, Tuesday

    Time Temperature Precipitation Wind Pressure Humidity
    00:00 +15°C° 0 mm 1 mps 765 mmHg 89%
    01:00 +15°C° 0 mm 1 mps 765 mmHg 90%
    02:00 +15°C° 0 mm 1 mps 765 mmHg 91%
    03:00 +14°C° 0 mm 1 mps 765 mmHg 92%
    04:00 +14°C° 0 mm 1 mps 765 mmHg 93%
    05:00 +14°C° 0 mm 1 mps 765 mmHg 93%
    06:00 +15°C° 0 mm 1 mps 765 mmHg 91%
    07:00 +15°C° 0 mm 1 mps 766 mmHg 89%
    08:00 +16°C° 0 mm 2 mps 766 mmHg 87%
    09:00 +19°C° 0 mm 1 mps 766 mmHg 76%
    10:00 +21°C° 0 mm 1 mps 766 mmHg 66%
    11:00 +22°C° 0 mm 0 mps 766 mmHg 56%
    12:00 +24°C° 0 mm 1 mps 766 mmHg 54%
    13:00 +24°C° 0 mm 2 mps 765 mmHg 52%
    14:00 +24°C° 0 mm 2 mps 765 mmHg 51%
    15:00 +22°C° 0 mm 3 mps 765 mmHg 59%
    16:00 +21°C° 0 mm 3 mps 765 mmHg 68%
    17:00 +19°C° 0 mm 4 mps 766 mmHg 77%
    18:00 +18°C° 0 mm 3 mps 766 mmHg 82%
    19:00 +17°C° 0 mm 3 mps 767 mmHg 87%
    20:00 +16°C° 0 mm 2 mps 767 mmHg 92%
    21:00 +16°C° 0 mm 2 mps 767 mmHg 92%
    22:00 +16°C° 0 mm 2 mps 768 mmHg 92%
    23:00 +16°C° 0 mm 1 mps 768 mmHg 92%

    24 April, Wednesday

    Time Temperature Precipitation Wind Pressure Humidity
    00:00 +16°C° 0 mm 1 mps 768 mmHg 91%
    01:00 +16°C° 0 mm 1 mps 768 mmHg 91%
    02:00 +16°C° 0 mm 1 mps 768 mmHg 90%
    03:00 +16°C° 0 mm 1 mps 768 mmHg 90%
    04:00 +16°C° 0 mm 1 mps 768 mmHg 90%
    05:00 +16°C° 0 mm 1 mps 768 mmHg 90%
    06:00 +16°C° 0 mm 1 mps 768 mmHg 88%
    07:00 +18°C° 0 mm 1 mps 768 mmHg 86%
    08:00 +18°C° 0 mm 1 mps 769 mmHg 84%
    09:00 +18°C° 0 mm 2 mps 769 mmHg 78%
    10:00 +20°C° 0 mm 2 mps 768 mmHg 72%
    11:00 +21°C° 0 mm 3 mps 768 mmHg 66%
    12:00 +22°C° 0 mm 3 mps 768 mmHg 64%
    13:00 +22°C° 0 mm 3 mps 767 mmHg 62%
    14:00 +24°C° 0 mm 3 mps 767 mmHg 61%
    15:00 +22°C° 0 mm 4 mps 767 mmHg 67%
    16:00 +20°C° 0 mm 4 mps 767 mmHg 73%
    17:00 +19°C° 0 mm 4 mps 767 mmHg 80%
    18:00 +18°C° 0 mm 4 mps 767 mmHg 84%
    19:00 +17°C° 0 mm 4 mps 768 mmHg 89%
    20:00 +15°C° 0 mm 4 mps 768 mmHg 93%
    21:00 +16°C° 0 mm 3 mps 768 mmHg 93%
    22:00 +16°C° 0 mm 3 mps 768 mmHg 93%
    23:00 +16°C° 0 mm 3 mps 768 mmHg 94%

    25 April, Thursday

    Time Temperature Precipitation Wind Pressure Humidity
    00:00 +16°C° 0 mm 3 mps 768 mmHg 93%
    01:00 +16°C° 0 mm 3 mps 768 mmHg 93%
    02:00 +16°C° 0 mm 3 mps 767 mmHg 93%
    03:00 +16°C° 0 mm 3 mps 767 mmHg 92%
    04:00 +16°C° 0 mm 3 mps 767 mmHg 90%
    05:00 +16°C° 0 mm 2 mps 767 mmHg 89%
    06:00 +17°C° 0 mm 3 mps 768 mmHg 87%
    07:00 +17°C° 0 mm 3 mps 768 mmHg 86%
    08:00 +17°C° 0 mm 3 mps 768 mmHg 84%
    09:00 +19°C° 0 mm 3 mps 768 mmHg 78%
    10:00 +20°C° 0 mm 3 mps 768 mmHg 72%
    11:00 +21°C° 0 mm 4 mps 768 mmHg 65%
    12:00 +21°C° 0 mm 4 mps 767 mmHg 66%
    13:00 +22°C° 0 mm 5 mps 767 mmHg 66%
    14:00 +22°C° 0 mm 5 mps 766 mmHg 66%
    15:00 +21°C° 0 mm 5 mps 766 mmHg 71%
    16:00 +20°C° 0 mm 5 mps 766 mmHg 75%
    17:00 +19°C° 0 mm 5 mps 766 mmHg 80%
    18:00 +17°C° 0 mm 5 mps 767 mmHg 84%
    19:00 +16°C° 0 mm 5 mps 767 mmHg 88%
    20:00 +15°C° 0 mm 5 mps 767 mmHg 92%
    21:00 +15°C° 0 mm 5 mps 767 mmHg 92%
    22:00 +15°C° 0 mm 4 mps 767 mmHg 93%
    23:00 +15°C° 0 mm 4 mps 767 mmHg 93%
    Show more